Simultaneous Nadir Overpasses (SNOs) Predictions

Prediction of SNOs between METOP-B and TERRA Satellite Orbit:

Table of predicted SNOs for the next 14.0 days since TLE Epoch: 2/6/2021
Index Date (METOP-B) Time (METOP-B) Lat,Lon (METOP-B) SZA (METOP-B ) Date (TERRA) Time (TERRA) Lat,Lon (TERRA) SZA (TERRA ) Distance(km) Time Diff (sec)
1 02/07/2021 09:07:29 81.30, 89.52 98.70 02/07/2021 09:08:19 81.29, 89.43 98.70 1.72 50
2 02/07/2021 09:58:09 -81.30,-102.67 81.26 02/07/2021 09:57:45 -81.30,-102.65 81.27 0.25 24
3 02/10/2021 04:41:51 81.29, 155.76 97.78 02/10/2021 04:42:32 81.29, 155.90 97.81 2.46 41
4 02/10/2021 05:32:30 -81.31, -35.99 82.13 02/10/2021 05:31:58 -81.31, -36.15 82.16 2.63 32
5 02/13/2021 00:16:12 81.30,-137.62 96.88 02/13/2021 00:16:45 81.29,-137.65 96.88 0.93 33
6 02/13/2021 01:06:52 -81.31, 30.28 83.08 02/13/2021 01:06:11 -81.31, 30.32 83.09 0.89 41
7 02/15/2021 19:50:32 81.30, -71.00 95.95 02/15/2021 19:50:56 81.31, -70.86 95.98 2.66 24
8 02/15/2021 20:41:12 -81.31, 96.92 84.00 02/15/2021 20:40:23 -81.31, 96.76 84.04 2.66 49
9 02/18/2021 15:24:53 81.30, -4.39 94.99 02/18/2021 15:25:09 81.31, -4.47 94.99 1.37 16



Historial Predications of SNOs between METOP-B and TERRA
